SXM-9

Last updated on Sat Oct 18 2025 00:02:57 GMT+0000 (Coordinated Universal Time)

1 62259U 24234A 25289.61031964 -.00000218 00000+0 00000+0 0 9995 2 62259 0.0201 289.2897 0004287 22.1648 208.5010 1.00276185 3131
UTC large
Height (km)
Speed (km/s)
/
Latitude / Longitude
Inclination (degrees)
Orbital Period (minutes)
Azimuth
Elevation
Range (km)
Doppler Factor

Next 0 passes for location: London (51.5072 / 0.1276)

Sorry there are no passes over London.